[[{"header":{"parameterUnit":"m.s-1","parameterCategory":1,"la1":30.2992,"la2":30.254,"lo1":-89.0895,"lo2":-89.0443,"dy":0.0025,"dx":0.0025,"nx":19,"ny":19,"refTime":"2026-04-15T03:00:00:Z","depth":0,"parameterNumber":2,"parameterNumberName":"U-component_of_WINDS"},"data":[0,0,0,-2.2638,-2.2637,-2.2582,-2.2581,-2.253,-2.253,0,0,0,0,0,0,0,0,0,0,0,-2.2668,-2.2668,-2.2638,-2.2637,-2.2582,-2.2581,-2.253,-2.253,0,0,0,0,0,0,0,0,0,0,0,-2.2668,-2.2668,-2.2668,-2.2637,-2.2582,-2.2581,-2.253,-2.2564,0,0,0,0,0,0,0,0,0,0,-2.2615,-2.2656,-2.2668,-2.2668,-2.2637,-2.2582,-2.2581,-2.2566,-2.2562,-2.2564,0,-2.2571,0,-2.255,-2.2528,-2.2528,0,0,0,-2.2626,-2.266,-2.2632,-2.2668,-2.2636,-2.2582,-2.2603,-2.2564,-2.256,-2.256,-2.257,-2.2568,-2.2549,-2.2528,-2.2527,-2.2581,-2.2581,0,0,-2.2629,-2.2665,-2.2635,-2.2631,-2.2643,-2.2605,-2.2602,-2.2561,-2.2574,-2.257,-2.2566,-2.2548,-2.2527,-2.2527,-2.258,-2.2581,0,0,0,-2.2645,-2.2668,-2.2641,-2.2633,-2.2622,-2.2604,-2.26,-2.2576,-2.2564,-2.2566,-2.2548,-2.2527,-2.2527,-2.2579,-2.258,-2.2653,0,0,0,-2.2647,-2.2677,-2.2643,-2.2664,-2.2623,-2.2599,-2.2616,-2.2567,-2.2561,-2.2548,-2.2527,-2.2527,-2.2578,-2.258,-2.2649,-2.2681,0,0,0,-2.2667,-2.2679,-2.2676,-2.2666,-2.2644,-2.2598,-2.2584,-2.2565,-2.2551,-2.2528,-2.2526,-2.2578,-2.2579,-2.2646,-2.2675,-2.2705,0,0,0,-2.2698,-2.274,-2.2678,-2.2718,-2.2645,-2.2645,-2.2584,-2.2582,-2.2571,-2.2527,-2.2578,-2.258,-2.2645,-2.2671,-2.2702,-2.2737,-2.2755,0,0,-2.2771,-2.275,-2.2771,-2.2714,-2.2735,-2.2651,-2.2681,-2.2636,-2.26,-2.2589,-2.2589,-2.2651,-2.2675,-2.2705,-2.2847,-2.2862,0,0,0,-2.2806,-2.2821,-2.2819,-2.2812,-2.278,-2.2755,-2.2702,-2.2685,-2.2674,-2.2602,-2.2669,-2.2682,-2.2698,-2.2713,-2.2726,-2.2737,-2.2589,-2.2589,-2.2589,-2.2958,-2.2913,-2.2944,-2.2892,-2.2886,-2.2832,-2.2821,-2.2789,-2.2743,-2.276,-2.2756,-2.2848,-2.2867,-2.2876,-2.2888,-2.2771,-2.2772,-2.2772,-2.2772,-2.306,-2.3074,-2.3015,-2.3024,-2.2975,-2.2981,-2.2931,-2.2899,-2.2896,-2.2847,-2.2859,-2.2807,-2.2894,-2.2902,-2.2777,-2.2776,-2.2776,-2.2775,-2.2775,-2.3153,-2.3152,-2.3133,-2.3119,-2.3113,-2.3058,-2.306,-2.3015,-2.2972,-2.2984,-2.2974,-2.2973,-2.2965,-2.2983,-2.2983,-2.2984,-2.2984,-2.2984,-2.2984,-2.3257,-2.3234,-2.3241,-2.3214,-2.3204,-2.3185,-2.3133,-2.3121,-2.3096,-2.3063,-2.3062,-2.3015,-2.2912,-2.2886,-2.2989,-2.2988,-2.2988,-2.2987,-2.2987,-2.3374,-2.3341,-2.3353,-2.3344,-2.3308,-2.3305,-2.3249,-2.3229,-2.3213,-2.3215,-2.3166,-2.3098,-2.3072,-2.3061,-2.304,-2.3176,-2.3176,-2.3176,-2.3176,-2.3452,-2.3436,-2.3439,-2.3427,-2.341,-2.3361,-2.3375,-2.3336,-2.3289,-2.3277,-2.3251,-2.3219,-2.3211,-2.319,-2.3176,-2.3155,-2.3318,-2.3318,-2.3318,-2.3521,-2.3502,-2.3523,-2.348,-2.3449,-2.3423,-2.3435,-2.3422,-2.3363,-2.3323,-2.3265,-2.3259,-2.3207,-2.3193,-2.315,-2.3131,-2.3091,0,0]},{"header":{"parameterUnit":"m.s-1","parameterCategory":1,"la1":30.2992,"la2":30.254,"lo1":-89.0895,"lo2":-89.0443,"dy":0.0025,"dx":0.0025,"nx":19,"ny":19,"refTime":"2026-04-15T03:00:00:Z","depth":0,"parameterNumber":3,"parameterNumberName":"V-component_of_WINDS"},"data":[0,0,0,4.0652,4.0653,4.0694,4.0695,4.0734,4.0734,0,0,0,0,0,0,0,0,0,0,0,4.0632,4.0632,4.0652,4.0653,4.0694,4.0695,4.0733,4.0734,0,0,0,0,0,0,0,0,0,0,0,4.0632,4.0632,4.0632,4.0653,4.0694,4.0695,4.0733,4.0707,0,0,0,0,0,0,0,0,0,0,4.0669,4.0643,4.0632,4.0632,4.0653,4.0694,4.0695,4.0706,4.0709,4.0709,0,4.0708,0,4.0722,4.0736,4.0736,0,0,0,4.0659,4.0641,4.0659,4.0632,4.0654,4.0694,4.0677,4.0708,4.0711,4.0713,4.0709,4.0711,4.0722,4.0736,4.0736,4.0723,4.0723,0,0,4.0656,4.0635,4.0657,4.0661,4.0655,4.0676,4.0679,4.071,4.0704,4.0709,4.0712,4.0723,4.0736,4.0736,4.0724,4.0723,0,0,0,4.0646,4.0633,4.0651,4.0659,4.0668,4.0677,4.068,4.0702,4.071,4.0712,4.0723,4.0736,4.0736,4.0724,4.0723,4.0688,0,0,0,4.0645,4.0627,4.065,4.0637,4.0667,4.0686,4.0672,4.0708,4.0712,4.0723,4.0736,4.0737,4.0724,4.0724,4.069,4.0674,0,0,0,4.0632,4.0626,4.063,4.0636,4.0653,4.0686,4.0695,4.0709,4.0719,4.0736,4.0737,4.0725,4.0724,4.0691,4.0677,4.0665,0,0,0,4.0612,4.0596,4.0629,4.0615,4.0653,4.0664,4.0695,4.0704,4.0715,4.0736,4.0724,4.0723,4.0692,4.0679,4.0667,4.0651,4.0643,0,0,4.058,4.0591,4.0585,4.0616,4.0615,4.0659,4.0654,4.0682,4.0703,4.0715,4.0715,4.0689,4.0677,4.0666,4.0605,4.0598,0,0,0,4.0568,4.0563,4.0568,4.0578,4.06,4.0619,4.0651,4.0662,4.0674,4.0705,4.0683,4.0676,4.067,4.0664,4.0658,4.0655,4.072,4.072,4.072,4.049,4.0519,4.0511,4.0545,4.0554,4.0589,4.0599,4.062,4.0644,4.0639,4.0642,4.0602,4.0594,4.059,4.0586,4.0637,4.0637,4.0637,4.0637,4.0445,4.0443,4.0479,4.0484,4.0515,4.0519,4.0552,4.057,4.0578,4.0602,4.0598,4.062,4.0582,4.058,4.0634,4.0635,4.0635,4.0635,4.0635,4.0397,4.0402,4.0417,4.0436,4.0447,4.0482,4.0489,4.0516,4.0542,4.0538,4.0545,4.0546,4.055,4.054,4.054,4.0539,4.0539,4.0539,4.0539,4.0341,4.036,4.0363,4.0388,4.0399,4.0417,4.0453,4.0465,4.0484,4.0503,4.0503,4.0528,4.0573,4.0584,4.0537,4.0537,4.0538,4.0538,4.0538,4.0284,4.0302,4.0307,4.0318,4.0351,4.036,4.0396,4.0417,4.0431,4.0433,4.046,4.0489,4.0502,4.0507,4.0515,4.0454,4.0454,4.0454,4.0454,4.0243,4.0254,4.0266,4.0282,4.0302,4.0335,4.034,4.0368,4.04,4.041,4.0423,4.0438,4.0441,4.0452,4.0458,4.0467,4.0394,4.0394,4.0394,4.021,4.0224,4.0222,4.0256,4.0284,4.0307,4.0313,4.033,4.037,4.0392,4.0419,4.0421,4.0445,4.0451,4.0473,4.0481,4.0498,0,0]}]]